Vorticity
2 1 1 5 4 6 10 13 2 8 1 6 4 8 4 -5 10 1 1 7 3 7 6 6 15 5 3 7 1 2 12 4 6 5 8 10 6 7 9 8 7 6 5 4 5 8 6 7 15
4 1 1 2 3 7 12 9 7 2 2 5 0 9 -3 0 -1 6 -3 -7 2 7 5 5 9 6 4 7 5 1 6 4 3 4 8 9 10 4 7 7 6 5 3 2 11 8 7 11 6
4 3 2 2 5 6 14 4 -0 6 2 2 4 7 -7 6 -3 -4 -1 -4 1 7 5 6 5 11 1 5 5 4 5 8 5 3 4 9 11 7 6 7 8 5 4 6 10 8 11 7 3
4 4 5 3 7 4 12 8 -0 1 6 5 8 6 1 5 -1 1 0 1 3 6 3 6 1 19 2 5 3 1 4 7 7 4 4 7 10 9 5 6 7 6 3 11 8 10 5 5 4
4 3 3 4 7 7 8 7 4 3 4 5 3 5 7 -0 -2 2 8 13 6 6 4 8 4 10 1 6 2 3 2 4 8 7 1 4 8 7 6 5 6 4 7 12 7 6 5 4 3
5 4 3 3 8 8 10 7 5 4 3 0 7 5 3 -5 0 3 3 11 6 5 6 8 6 2 -1 7 5 4 3 3 8 6 3 4 7 7 7 8 9 9 8 10 7 4 4 5 4
3 4 4 2 5 7 12 1 9 2 4 2 4 5 10 4 -1 4 8 7 7 5 6 7 8 3 0 5 6 6 4 4 5 7 3 2 7 5 9 9 11 7 6 6 7 5 4 4 4
4 4 4 2 3 7 8 9 1 -0 4 5 2 0 5 6 2 1 8 5 6 6 5 7 7 4 1 4 7 6 9 4 5 7 5 3 5 6 8 8 5 7 8 9 7 6 5 4 4
7 9 4 2 2 8 12 11 -3 2 4 6 0 7 2 4 7 3 8 7 6 7 6 7 6 4 4 3 8 6 10 5 5 7 5 4 5 5 6 7 5 4 6 8 8 10 10 8 7
8 8 4 -1 1 9 -2 8 8 0 4 2 3 7 -3 10 9 1 9 5 6 9 8 8 6 5 3 6 7 7 12 8 5 6 5 3 6 6 5 5 4 5 5 6 7 7 8 8 7
9 15 5 4 -0 4 -2 7 8 -4 2 4 3 4 5 7 0 3 8 8 5 6 5 7 1 5 3 7 5 5 9 7 5 5 9 3 4 7 5 6 4 5 5 5 5 7 6 5 5
8 5 9 3 3 1 2 9 5 4 7 1 3 3 2 8 11 7 11 5 8 7 4 3 4 8 3 6 8 5 7 7 5 5 9 2 2 7 6 5 5 5 6 5 6 6 7 7 6
10 -1 5 9 8 0 3 9 9 3 10 -1 3 2 2 1 -2 12 6 6 5 4 7 5 3 4 5 8 8 6 7 8 6 7 9 6 3 6 6 6 5 5 6 4 4 6 6 7 7
14 11 5 4 1 6 1 5 8 3 9 2 3 4 1 -3 -3 20 -0 2 3 5 6 5 6 5 7 5 9 6 8 10 6 7 8 7 4 5 5 5 6 7 7 5 3 4 5 5 6
10 18 12 5 1 3 7 2 8 4 6 2 1 4 1 1 7 1 16 5 5 4 7 7 5 4 8 6 8 9 6 8 7 8 10 7 3 6 5 5 6 5 6 8 6 6 6 6 6
8 9 18 5 5 4 2 11 5 4 5 6 -0 2 4 3 2 -8 19 7 7 15 10 11 10 8 10 9 8 6 6 7 7 6 14 10 3 3 6 4 7 7 5 6 7 7 7 7 6
5 10 10 7 10 7 1 13 6 6 9 4 3 3 4 4 4 1 19 7 2 7 7 7 10 8 8 10 8 7 6 6 7 7 10 15 6 2 4 4 5 8 8 8 6 6 7 7 6
7 15 9 12 15 8 6 5 8 7 7 3 5 4 2 5 1 -1 8 15 5 3 3 6 5 5 6 7 8 11 11 6 7 8 10 15 9 4 3 2 5 3 3 4 6 7 6 7 4
8 8 13 5 10 19 8 8 8 9 4 6 3 -1 3 3 5 2 -4 -5 4 0 2 6 7 5 9 6 11 10 13 3 4 6 8 13 10 3 3 0 4 3 2 4 5 7 7 6 7
18 18 16 3 7 13 17 7 5 5 9 3 11 0 -2 1 1 3 0 19 4 0 1 0 3 8 3 3 6 9 8 6 4 4 4 8 9 4 4 3 3 3 4 7 5 8 6 7 7
18 18 20 19 2 14 12 22 6 6 9 -1 11 5 1 0 2 1 5 5 4 -1 2 1 1 3 5 2 5 5 9 9 11 12 7 10 8 7 5 4 2 4 7 8 11 11 10 6 5
22 19 24 16 10 20 6 33 12 3 11 8 -2 5 1 1 3 3 5 4 5 4 5 -0 3 1 2 3 1 4 5 10 13 11 9 7 7 6 5 4 2 4 5 3 7 8 9 9 6
29 18 20 15 12 19 1 29 18 8 7 8 3 1 7 4 3 2 4 4 5 4 0 2 4 3 2 1 4 3 4 7 4 11 8 8 4 4 4 3 5 7 6 7 10 11 8 10 7
27 21 21 12 17 14 9 20 16 12 10 6 8 1 1 4 4 4 1 2 7 2 4 -0 3 7 0 3 7 3 2 10 2 8 8 10 8 12 9 7 7 7 6 7 5 7 9 8 8
29 25 28 20 10 14 -3 37 24 13 15 12 8 5 2 3 5 4 2 2 3 3 4 5 -1 8 5 8 9 3 7 4 13 6 5 4 4 6 8 8 8 6 5 5 2 4 6 7 5
25 23 26 23 13 25 9 2 34 14 18 14 11 10 2 3 4 3 4 3 2 3 1 5 9 0 -0 4 2 16 8 4 5 5 6 7 5 6 2 6 6 9 6 4 3 3 5 3 14
2 32 24 37 18 24 5 24 22 12 30 17 17 6 8 -1 2 3 3 3 3 4 1 3 3 3 15 -7 8 0 -1 4 6 3 5 1 1 7 4 8 6 8 8 5 4 4 1 1 4
21 -1 16 33 15 36 23 -10 6 52 9 37 4 20 2 5 3 3 1 2 3 2 4 6 4 4 6 20 -1 -6 -3 7 12 8 3 -0 6 5 6 10 12 9 7 7 7 8 2 7 5
-15 23 34 -7 20 30 37 23 24 22 17 34 24 9 22 8 6 4 3 2 1 3 2 3 2 3 6 4 3 8 5 15 6 6 11 6 10 10 4 6 8 9 8 5 6 8 7 5 7
44 -12 38 51 -8 30 25 35 -5 22 61 45 58 -7 8 39 -1 12 6 1 -1 -1 -0 -1 2 3 6 5 4 11 0 33 23 4 3 10 17 10 9 5 8 6 4 6 3 8 10 9 3
Height
5838 5840 5843 5846 5850 5851 5855 5857 5857 5856 5855 5857 5861 5862 5865 5863 5867 5870 5868 5868 5869 5871 5872 5874 5875 5876 5875 5874 5873 5872 5872 5871 5870 5869 5869 5870 5870 5871 5871 5872 5872 5873 5873 5872 5872 5872 5872 5873 5872
5833 5836 5839 5841 5845 5848 5852 5853 5855 5851 5852 5856 5859 5861 5863 5864 5864 5866 5866 5866 5867 5868 5870 5872 5874 5875 5875 5874 5872 5872 5871 5871 5870 5869 5870 5870 5870 5870 5871 5872 5873 5873 5873 5873 5872 5872 5873 5874 5873
5827 5830 5834 5836 5841 5848 5849 5847 5848 5846 5850 5854 5856 5858 5859 5862 5861 5863 5863 5864 5865 5866 5868 5870 5872 5873 5873 5873 5872 5872 5871 5871 5870 5870 5870 5870 5870 5870 5871 5872 5873 5873 5873 5873 5873 5873 5874 5875 5875
5821 5824 5827 5831 5839 5842 5842 5843 5844 5843 5848 5850 5852 5855 5857 5857 5857 5859 5860 5861 5863 5865 5866 5868 5871 5871 5872 5872 5872 5871 5870 5871 5871 5871 5871 5871 5870 5870 5871 5871 5872 5873 5874 5874 5874 5874 5875 5875 5876
5816 5818 5820 5826 5835 5838 5836 5840 5840 5841 5843 5847 5849 5853 5854 5853 5853 5855 5858 5858 5861 5863 5864 5866 5867 5869 5870 5871 5871 5870 5870 5870 5871 5871 5871 5871 5871 5871 5870 5871 5872 5873 5874 5874 5875 5875 5876 5876 5876
5808 5812 5815 5822 5831 5832 5830 5835 5838 5838 5838 5841 5847 5849 5850 5851 5849 5851 5853 5856 5859 5860 5862 5864 5865 5867 5868 5869 5869 5869 5869 5869 5870 5870 5871 5871 5872 5872 5871 5872 5872 5872 5874 5874 5875 5876 5877 5877 5877
5801 5804 5809 5815 5824 5826 5825 5826 5832 5834 5833 5835 5842 5845 5847 5848 5846 5848 5850 5853 5856 5858 5860 5862 5863 5865 5867 5868 5868 5868 5869 5869 5870 5870 5871 5872 5872 5872 5872 5872 5872 5872 5873 5875 5876 5876 5877 5877 5878
5791 5793 5801 5809 5818 5822 5821 5819 5823 5827 5830 5831 5837 5842 5845 5845 5843 5845 5848 5850 5853 5855 5857 5860 5861 5863 5865 5866 5867 5867 5868 5869 5870 5871 5871 5872 5872 5872 5873 5873 5873 5873 5874 5874 5875 5876 5877 5878 5877
5779 5784 5794 5803 5810 5817 5815 5815 5814 5821 5827 5827 5830 5838 5839 5839 5841 5842 5845 5848 5850 5852 5854 5857 5859 5860 5863 5864 5865 5866 5867 5868 5869 5870 5871 5872 5872 5872 5873 5873 5874 5874 5875 5875 5876 5876 5877 5878 5877
5767 5775 5788 5795 5802 5806 5808 5808 5809 5814 5821 5823 5827 5834 5835 5838 5838 5839 5842 5844 5847 5850 5852 5854 5857 5858 5860 5862 5863 5864 5865 5866 5867 5868 5870 5871 5871 5872 5872 5872 5873 5874 5875 5875 5875 5876 5876 5877 5878
5756 5768 5778 5781 5789 5794 5799 5801 5800 5804 5812 5817 5823 5829 5831 5834 5834 5836 5838 5840 5843 5846 5848 5851 5853 5856 5857 5859 5859 5861 5863 5864 5866 5866 5868 5869 5870 5871 5872 5872 5872 5873 5874 5874 5875 5875 5875 5876 5877
5741 5760 5763 5769 5775 5780 5788 5792 5793 5792 5806 5807 5814 5821 5825 5828 5833 5833 5835 5837 5840 5842 5845 5847 5850 5853 5854 5856 5857 5858 5860 5861 5863 5864 5866 5867 5868 5869 5870 5871 5871 5872 5873 5873 5874 5874 5874 5875 5876
5731 5750 5749 5754 5763 5763 5773 5785 5783 5783 5798 5799 5805 5811 5819 5822 5827 5828 5830 5831 5836 5839 5841 5843 5846 5849 5850 5852 5854 5855 5857 5858 5860 5861 5863 5865 5866 5867 5868 5869 5870 5871 5871 5872 5873 5874 5873 5874 5874
5722 5728 5735 5738 5749 5751 5759 5770 5769 5786 5790 5789 5794 5801 5808 5815 5819 5824 5823 5828 5832 5835 5838 5840 5842 5845 5847 5849 5850 5852 5853 5855 5856 5858 5860 5861 5863 5864 5866 5867 5868 5869 5870 5870 5871 5872 5872 5873 5873
5704 5711 5718 5728 5737 5739 5746 5749 5763 5786 5777 5780 5784 5791 5798 5806 5811 5818 5822 5824 5827 5830 5832 5835 5837 5839 5843 5844 5846 5848 5849 5851 5853 5855 5856 5858 5860 5862 5863 5864 5865 5866 5867 5868 5869 5869 5870 5870 5871
5684 5693 5702 5725 5725 5727 5726 5738 5764 5774 5766 5771 5776 5782 5789 5795 5805 5810 5815 5816 5820 5824 5828 5829 5833 5835 5838 5840 5841 5843 5845 5846 5849 5851 5853 5854 5856 5859 5860 5861 5862 5864 5865 5865 5866 5867 5867 5868 5868
5665 5677 5690 5708 5709 5704 5705 5727 5753 5757 5753 5761 5766 5772 5779 5786 5797 5802 5809 5812 5814 5818 5821 5825 5828 5830 5832 5834 5835 5838 5839 5842 5844 5847 5849 5850 5853 5855 5857 5858 5859 5861 5862 5862 5863 5863 5864 5864 5864
5657 5659 5671 5681 5687 5686 5689 5706 5735 5741 5742 5748 5756 5762 5770 5778 5788 5796 5803 5806 5809 5811 5815 5819 5822 5824 5826 5828 5830 5833 5835 5837 5839 5843 5845 5846 5848 5851 5853 5854 5856 5857 5858 5859 5859 5859 5860 5860 5860
5628 5635 5646 5666 5667 5672 5681 5688 5714 5727 5725 5735 5743 5750 5761 5769 5781 5788 5794 5799 5801 5804 5809 5814 5818 5819 5822 5823 5826 5828 5830 5832 5833 5836 5839 5841 5844 5847 5849 5850 5851 5853 5853 5855 5856 5856 5856 5856 5857
5610 5619 5629 5650 5652 5649 5663 5663 5687 5702 5706 5721 5730 5737 5748 5758 5769 5779 5784 5791 5794 5798 5803 5806 5812 5814 5817 5818 5820 5821 5823 5826 5827 5830 5833 5837 5839 5842 5845 5847 5847 5848 5849 5850 5851 5851 5852 5852 5853
5597 5602 5620 5628 5632 5633 5638 5642 5659 5688 5696 5702 5712 5724 5733 5746 5758 5769 5776 5783 5789 5791 5796 5801 5805 5808 5810 5812 5814 5816 5818 5821 5824 5827 5830 5833 5835 5837 5840 5842 5842 5843 5844 5844 5845 5846 5847 5847 5848
5576 5596 5601 5606 5608 5613 5623 5620 5635 5663 5674 5685 5702 5709 5718 5732 5743 5755 5765 5772 5778 5785 5789 5793 5797 5801 5803 5805 5808 5811 5813 5817 5820 5821 5823 5825 5828 5832 5834 5836 5837 5838 5839 5840 5840 5840 5841 5842 5842
5571 5569 5579 5586 5587 5594 5602 5602 5623 5639 5656 5671 5693 5701 5709 5720 5731 5742 5754 5762 5768 5774 5781 5786 5790 5793 5796 5799 5801 5804 5807 5811 5812 5816 5818 5819 5821 5824 5827 5829 5831 5832 5833 5834 5834 5835 5835 5836 5836
5556 5556 5563 5564 5574 5568 5590 5598 5598 5618 5650 5664 5682 5692 5699 5706 5719 5729 5740 5749 5756 5763 5770 5776 5780 5785 5789 5793 5796 5799 5801 5804 5806 5810 5813 5814 5816 5818 5820 5822 5825 5826 5827 5828 5828 5829 5830 5830 5830
5542 5545 5546 5547 5548 5556 5582 5577 5586 5611 5637 5653 5669 5682 5691 5696 5704 5715 5724 5735 5745 5751 5758 5765 5771 5777 5782 5785 5789 5793 5794 5796 5800 5802 5805 5807 5809 5811 5814 5815 5818 5819 5820 5820 5821 5822 5824 5825 5824
5536 5535 5535 5536 5544 5558 5568 5558 5573 5605 5624 5640 5658 5669 5678 5685 5689 5702 5713 5723 5731 5740 5746 5753 5761 5767 5773 5776 5780 5784 5787 5789 5791 5794 5796 5799 5801 5804 5805 5807 5809 5811 5811 5813 5814 5814 5815 5817 5817
5532 5529 5533 5528 5537 5540 5547 5563 5577 5588 5598 5616 5631 5641 5655 5667 5680 5691 5702 5710 5720 5727 5734 5740 5747 5755 5762 5768 5771 5774 5778 5781 5784 5786 5787 5789 5793 5796 5798 5799 5801 5802 5803 5805 5806 5806 5807 5808 5809
5526 5526 5526 5525 5528 5529 5539 5554 5559 5577 5584 5599 5617 5630 5645 5658 5669 5677 5687 5697 5706 5715 5723 5728 5733 5740 5750 5757 5762 5765 5768 5772 5776 5776 5780 5781 5784 5785 5788 5791 5792 5793 5795 5797 5798 5798 5799 5799 5800
5523 5518 5519 5519 5524 5527 5535 5548 5557 5562 5567 5580 5600 5618 5627 5639 5651 5662 5671 5680 5689 5699 5707 5715 5720 5727 5735 5743 5750 5754 5758 5761 5764 5766 5772 5774 5775 5777 5779 5782 5783 5785 5786 5788 5789 5789 5790 5791 5790
5517 5515 5514 5516 5518 5520 5526 5540 5543 5549 5555 5565 5576 5588 5601 5611 5626 5642 5656 5665 5673 5682 5691 5700 5709 5714 5723 5730 5736 5743 5746 5749 5750 5755 5761 5763 5765 5767 5770 5772 5774 5775 5776 5777 5779 5779 5780 5779 5779